Regional Weather Roundup
Issued by NWS Charleston, WV

Home | Current Version | Previous Version | Text Only | Print | Product List | Glossary Off
Versions: 1 2 3 4 5 6 7 8 9 10 11 12 13 14 15 16 17 18 19 20 21 22 23 24 25 26 27 28 29 30 31 32 33 34 35 36 37 38 39 40 41 42 43 44 45 46 47 48 49 50

000
ASUS41 KRLX 201410
RWRRLX
West Virginia Regional Weather Roundup
National Weather Service Charleston WV
1000 AM EDT MON OCT 20 2014

Note: "fair" indicates few or no clouds below 12,000 feet with no
significant weather and/or obstructions to visibility.

WVZ003-201500-
Northern Panhandle of West Virginia

CITY           SKY/WX    TMP DP  RH WIND       PRES   REMARKS
WHEELING       CLOUDY    48  39  71 S9        30.01F
$$

WVZ009-201500-
Northwest West Virginia

CITY           SKY/WX    TMP DP  RH WIND       PRES   REMARKS
PARKERSBURG    CLOUDY    46  39  76 S7        30.07S
$$

WVZ006-201500-
Western West Virginia

CITY           SKY/WX    TMP DP  RH WIND       PRES   REMARKS
HUNTINGTON     PTSUNNY   45  43  93 S6        30.06F
$$

WVZ015-201500-
West Central West Virginia

CITY           SKY/WX    TMP DP  RH WIND       PRES   REMARKS
CHARLESTON     PTSUNNY   43  42  97 CALM      30.07S
$$

WVZ022-031-201500-
North Central West Virginia

CITY           SKY/WX    TMP DP  RH WIND       PRES   REMARKS
CLARKSBURG     CLOUDY    46  39  76 CALM      30.06S
MORGANTOWN     CLOUDY    49  37  63 CALM      30.06S
$$

WVZ025-035-042-045-201500-
Southern West Virginia

CITY           SKY/WX    TMP DP  RH WIND       PRES   REMARKS
BECKLEY        MOSUNNY   49  36  61 SW6       30.10S
LOGAN            N/A     46  41  81 CALM      30.08S
BLUEFIELD      SUNNY     53  36  52 SW6       30.11R
LEWISBURG      SUNNY     42  37  82 CALM      30.11S
$$

WVZ047-201500-
Northern Mountains of West Virginia

CITY           SKY/WX    TMP DP  RH WIND       PRES   REMARKS
ELKINS         CLOUDY    36  35  96 CALM      30.09S
$$

WVZ052-201500-
Eastern Panhandle of West Virginia

CITY           SKY/WX    TMP DP  RH WIND       PRES   REMARKS
MARTINSBURG    CLOUDY    44  37  76 CALM      30.09F
PETERSBURG     CLOUDY   N/A N/A N/A CALM      30.09F
$$



USA.gov is the U.S. government's official web portal to all federal, state and local government web resources and services.